Location: Newark
(46.7000°N, 60.6000°W)
Time: 09:22:54
(UTC+00:00)

Transit 2A Rocket - Pass Details

Date: 27 October 2020
Orbit: 588 x 915 km, 66.7° (Epoch: 23 November)

Event Time Altitude Azimuth Distance (km) Brightness Sun altitude
Rises 20:03:04 0° 328° (NNW) 3,400 8.4 7.2°
Reaches altitude 10° 20:06:48 10° 351° (N) 2,393 7.4 6.6°
Maximum altitude 20:09:49 15° 25° (NNE) 2,015 6.8 6.2°
Drops below altitude 10° 20:12:42 10° 59° (ENE) 2,265 6.8 5.7°
Sets 20:16:04 0° 83° (E) 3,109 7.5 5.2°
